Bar Harbor, ME

12:53 AM EST on December 10, 2019 (GMT -0500)
Hancock County-Bar Harbor

Weather History for KBHB - October, 2019

Change the Weather History Date:

Wednesday, October 16, 2019

  Actual Average Record
Temperature  
Mean Temperature 45 °F -  
Max Temperature 57 °F 57 °F 80 °F (1968)
Min Temperature 33 °F 41 °F 30 °F (1950)
Degree Days  
Heating Degree Days 20    
Moisture  
Dew Point 40 °F    
Average Humidity 78    
Maximum Humidity 100    
Minimum Humidity 47    
Precipitation  
Precipitation 0.00 in - - ()
Sea Level Pressure  
Sea Level Pressure 30.02 in    
Wind  
Wind Speed 4 mph (SE)    
Max Wind Speed 13 mph    
Max Gust Speed 21 mph    
Visibility 10 miles    
Events      
Averages and records for this station are not official NWS values.
T = Trace of Precipitation, MM = Missing Value Source: NWS Daily Summary

Daily Weather History Graph

Daily Weather History Graph

Search for Another Location

Airport or City:

Astronomy

Oct. 16, 2019 Rise Set
Actual Time 6:49 AM EDT 5:47 PM EDT
Civil Twilight 6:20 AM EDT 6:17 PM EDT
Nautical Twilight 5:46 AM EDT 6:50 PM EDT
Astronomical Twilight 5:12 AM EDT 7:24 PM EDT
Moon 7:33 PM EDT (10/16) 9:20 AM EDT (10/16)
Length of Visible Light 11h 57m
Length of Day
10h 58m
Waning Gibbous, 93% of the Moon is Illuminated
Oct 16
Waning Gibbous
Oct 21
Last Quarter
Oct 27
New
Nov 4
First Quarter
Nov 12
Full

Hourly Weather History & Observations

Time (EDT) Temp. Windchill Dew Point Humidity Pressure Visibility Wind Dir Wind Speed Gust Speed Precip Events Conditions
12:56 AM 37.9 °F - 36.0 °F 93% 30.12 in 10.0 mi Calm Calm - N/A   Clear
1:56 AM 36.0 °F - 35.1 °F 97% 30.12 in 9.0 mi Calm Calm - N/A   Clear
2:56 AM 35.1 °F 32.2 °F 34.0 °F 96% 30.10 in 10.0 mi NNW 3.5 mph - N/A   Clear
3:56 AM 34.0 °F - 33.1 °F 96% 30.11 in 10.0 mi Calm Calm - N/A   Clear
4:56 AM 34.0 °F 31.0 °F 33.1 °F 96% 30.11 in 10.0 mi NNW 3.5 mph - N/A   Clear
5:56 AM 34.0 °F - 34.0 °F 100% 30.12 in 10.0 mi Calm Calm - N/A   Clear
6:56 AM 33.1 °F 30.0 °F 33.1 °F 100% 30.11 in 10.0 mi North 3.5 mph - N/A   Clear
7:56 AM 39.0 °F 36.8 °F 37.9 °F 96% 30.13 in 10.0 mi North 3.5 mph - N/A   Clear
8:56 AM 44.1 °F - 39.9 °F 85% 30.12 in 10.0 mi Calm Calm - N/A   Clear
9:56 AM 51.1 °F - 44.1 °F 77% 30.11 in 10.0 mi Calm Calm - N/A   Clear
10:56 AM 55.0 °F - 46.0 °F 72% 30.09 in 10.0 mi SSE 3.5 mph - N/A   Clear
11:56 AM 57.9 °F - 42.1 °F 56% 30.06 in 10.0 mi SW 9.2 mph - N/A   Partly Cloudy
12:56 PM 57.9 °F - 37.9 °F 47% 30.04 in 10.0 mi SSE 12.7 mph - N/A   Clear
1:56 PM 57.9 °F - 39.0 °F 49% 30.03 in 10.0 mi South 11.5 mph - N/A   Clear
2:56 PM 57.0 °F - 42.1 °F 57% 30.03 in 10.0 mi South 9.2 mph - N/A   Clear
3:56 PM 55.0 °F - 39.0 °F 55% 30.01 in 10.0 mi South 12.7 mph - N/A   Clear
4:56 PM 53.1 °F - 39.9 °F 61% 29.99 in 10.0 mi SSE 6.9 mph - N/A   Clear
5:56 PM 52.0 °F - 45.0 °F 77% 29.97 in 10.0 mi SE 4.6 mph - N/A   Clear
6:56 PM 51.1 °F - 45.0 °F 80% 29.94 in 10.0 mi ESE 4.6 mph - N/A   Clear
7:56 PM 51.1 °F - 45.0 °F 80% 29.91 in 10.0 mi SE 5.8 mph - N/A   Clear
8:56 PM 52.0 °F - 43.0 °F 71% 29.87 in 10.0 mi SE 8.1 mph - N/A   Clear
9:56 PM 53.1 °F - 46.0 °F 77% 29.85 in 10.0 mi SE 8.1 mph 16.1 mph N/A   Mostly Cloudy
10:56 PM 53.1 °F - 46.9 °F 80% 29.82 in 10.0 mi ESE 9.2 mph 16.1 mph N/A   Overcast
11:56 PM 53.1 °F - 46.0 °F 77% 29.76 in 10.0 mi East 11.5 mph 20.7 mph N/A   Mostly Cloudy